Flag for Germany Weather past 2 weeks in Bingen am Rhein, Rhineland-Palatinate, Germany

Now
61 °F

Sunny.


Feels Like: 61 °F
Forecast: 48 / 65 °F
Wind: 7 mph from Northwest

Location: Wiesbaden Airport

Current Time: Sep 3, 2015 at 10:09:41 PM

Latest Report: Sep 3, 2015 at 8:58 PM


Visibility: N/A

Pressure: 29.95 "Hg

Humidity: 55%

Dew point: 45 °F

Location of Bingen am RheinLocation

Historic Weather in Bingen am Rhein — Graph

°F

Bingen am Rhein temperature yesterday

Maximum temperature yesterday: 71 °F (at 2:58 PM)
Minimum temperature yesterday: 55 °F (at 5:58 AM)
Average temperature yesterday: 62 °F

Past Weeks' High & Low Weather Summary

 TemperatureHumidityPressure
High93 °F (Aug 31, 3:58 PM)100% (Aug 23, 8:58 PM)30.29 "Hg (Aug 23, 8:58 PM)
Low52 °F (Sep 3, 6:58 AM)24% (Aug 22, 4:58 PM)29.66 "Hg (Aug 23, 6:58 PM)
Average68 °F69%29.99 "Hg
* Reported Aug 19 8:58 PM — Sep 3 8:58 PM, Bingen am Rhein, Weather by CustomWeather, © 2015

Note: Actual official high and low records may vary slightly from our data, if they occured in-between our weather recording intervals... More about our weather records

Advertising

Bingen am Rhein weather history for previous 24 hours

 ConditionsComfort  
Time TempWeatherWind HumidityBarometerVisibility
8:58 PM
Thu, Sep 3
61 °FSunny.7 mph55%29.95 "HgN/A
7:58 PM65 °FSunny.8 mph46%29.93 "HgN/A
6:58 PM68 °FSunny.9 mph43%29.93 "HgN/A
5:58 PM70 °FPassing clouds.12 mph38%29.92 "HgN/A
4:58 PM70 °FScattered clouds.7 mph43%29.92 "HgN/A
3:58 PM70 °FPassing clouds.8 mph42%29.93 "HgN/A
2:58 PM68 °FScattered clouds.7 mph48%29.94 "HgN/A
1:58 PM68 °FBroken clouds.9 mph49%29.94 "HgN/A
12:58 PM68 °FBroken clouds.8 mph53%29.95 "HgN/A
11:58 AM64 °FPassing clouds.No wind64%29.96 "HgN/A
10:58 AM61 °FSunny.2 mph76%29.97 "HgN/A
9:58 AM57 °FOvercast.2 mph82%29.98 "Hg4 mi
8:58 AM55 °FPartly sunny.5 mph88%29.97 "Hg6 mi
7:58 AM55 °FPartly sunny.2 mph85%29.97 "Hg6 mi
6:58 AM52 °FFog.3 mph94%29.95 "Hg6 mi
5:58 AM55 °FOvercast.3 mph88%29.95 "HgN/A
4:58 AM55 °FOvercast.3 mph88%29.96 "HgN/A
3:58 AM54 °FPassing clouds.No wind94%29.96 "HgN/A
2:58 AM55 °FOvercast.5 mph88%29.97 "HgN/A
1:58 AM57 °FFog.2 mph88%29.97 "Hg5 mi
12:58 AM57 °FOvercast.2 mph94%29.97 "HgN/A
11:58 PM
Wed, Sep 2
59 °FPassing clouds.6 mph82%29.98 "HgN/A
10:58 PM59 °FPassing clouds.6 mph88%29.98 "HgN/A
Weather by CustomWeather, © 2015

See weather overviewHow to use our weather pages